Weather History for Karlovy Vary, Czech Republic

Change the Weather History Date:

Tuesday, March 19, 2013

  Actual Average (EDQM) Record (EDQM)
Temperature  
Mean Temperature 30 °F -  
Max Temperature 35 °F 41 °F 55 °F (2004)
Min Temperature 26 °F 30 °F 26 °F (1999)
Degree Days  
Heating Degree Days 34    
Moisture  
Dew Point 28 °F    
Average Humidity 87    
Maximum Humidity 93    
Minimum Humidity 81    
Precipitation  
Precipitation 0.00 in - - ()
Sea Level Pressure  
Sea Level Pressure 29.37 in    
Wind  
Wind Speed 9 mph ()    
Max Wind Speed 15 mph    
Max Gust Speed -    
Visibility 4.9 miles    
Events Snow    
Averages and records for this station are not official NWS values.
T = Trace of Precipitation, MM = Missing Value Source: Averaged Metar Reports

Daily Weather History Graph

Daily Weather History Graph

Search for Another Location

Airport:

Trip Planner

Search our weather history database for the weather conditions in past years. The results will help you decide how hot, cold, wet, or windy it might be!

Date:

Astronomy

Mar. 19, 2013 Rise Set
Actual Time 6:13 AM CET 6:19 PM CET
Civil Twilight 5:40 AM CET 6:52 PM CET
Nautical Twilight 5:02 AM CET 7:30 PM CET
Astronomical Twilight 4:23 AM CET 8:10 PM CET
Moon 10:15 AM CET (3/19) 1:27 AM CET (3/19)
Length of Visible Light 13h 11m
Length of Day
12h 06m
Waxing Crescent, 48% of the Moon is Illuminated
Mar 19
Waxing Crescent
Mar 19
First Quarter
Mar 27
Full
Apr 3
Last Quarter
Apr 10
New

Hourly Weather History & Observations

Time (CET) Temp. Windchill Dew Point Humidity Pressure Visibility Wind Dir Wind Speed Gust Speed Precip Events Conditions
12:00 AM 28.4 °F 24.6 °F 26.6 °F 93% 29.18 in 0.9 mi West 3.5 mph - N/A Snow Light Snow
1:00 AM 28.4 °F 22.2 °F 26.6 °F 93% 29.18 in 0.9 mi WSW 5.8 mph - N/A Snow Light Snow
2:00 AM 28.4 °F 19.7 °F 26.6 °F 93% 29.21 in 3.7 mi WSW 9.2 mph - N/A   Mostly Cloudy
3:00 AM 28.4 °F 19.1 °F 26.6 °F 93% 29.21 in 5.0 mi West 10.4 mph - N/A   Mostly Cloudy
4:00 AM 28.4 °F 18.5 °F 24.8 °F 86% 29.24 in 5.6 mi West 11.5 mph - N/A Snow Light Snow
5:00 AM 28.4 °F 18.5 °F 24.8 °F 86% 29.24 in 3.1 mi West 11.5 mph - N/A Snow Light Snow
6:00 AM 26.6 °F 16.2 °F 24.8 °F 93% 29.27 in 1.9 mi West 11.5 mph - N/A Snow Light Snow
6:30 AM 26.6 °F 16.2 °F 24.8 °F 93% 29.27 in 1.9 mi West 11.5 mph - N/A Snow Light Snow
7:00 AM 26.6 °F 15.2 °F 24.8 °F 93% 29.27 in 3.1 mi West 13.8 mph - N/A Snow Light Snow
7:30 AM 28.4 °F 17.0 °F 26.6 °F 93% 29.30 in 3.7 mi West 15.0 mph - N/A   Mostly Cloudy
8:00 AM 28.4 °F 18.0 °F 26.6 °F 93% 29.30 in 5.0 mi West 12.7 mph - N/A   Overcast
8:30 AM 28.4 °F 18.5 °F 26.6 °F 93% 29.30 in 3.7 mi West 11.5 mph - N/A   Mostly Cloudy
9:00 AM 28.4 °F 18.0 °F 26.6 °F 93% 29.33 in 3.7 mi West 12.7 mph - N/A   Overcast
9:30 AM 30.2 °F 21.9 °F 26.6 °F 86% 29.33 in - West 9.2 mph - N/A   Overcast
10:00 AM 30.2 °F 20.8 °F 28.4 °F 93% 29.36 in 3.1 mi WSW 11.5 mph - N/A   Overcast
10:30 AM 32.0 °F 22.1 °F 28.4 °F 87% 29.36 in 4.3 mi WSW 13.8 mph - N/A   Overcast
11:00 AM 32.0 °F 22.5 °F 28.4 °F 87% 29.36 in 5.0 mi WSW 12.7 mph - N/A   Overcast
11:30 AM 32.0 °F 22.5 °F 28.4 °F 87% 29.39 in 6.2 mi WSW 12.7 mph - N/A   Overcast
12:00 PM 32.0 °F 22.1 °F 28.4 °F 87% 29.39 in 6.2 mi WSW 13.8 mph - N/A   Overcast
12:30 PM 33.8 °F 25.8 °F 28.4 °F 81% 29.42 in 6.2 mi WSW 10.4 mph - N/A   Overcast
1:00 PM 33.8 °F 23.9 °F 28.4 °F 81% 29.42 in 6.2 mi WSW 15.0 mph - N/A   Overcast
1:30 PM 33.8 °F 24.8 °F 30.2 °F 87% 29.42 in 6.2 mi WSW 12.7 mph - N/A   Overcast
2:00 PM 33.8 °F 25.3 °F 30.2 °F 87% 29.42 in 6.2 mi WSW 11.5 mph - N/A   Mostly Cloudy
2:30 PM 33.8 °F 25.3 °F 30.2 °F 87% 29.42 in 6.2 mi WSW 11.5 mph - N/A   Mostly Cloudy
3:00 PM 35.6 °F 27.5 °F 30.2 °F 81% 29.42 in 6.2 mi WSW 11.5 mph - N/A   Mostly Cloudy
3:30 PM 35.6 °F 28.0 °F 30.2 °F 81% 29.44 in 6.2 mi WSW 10.4 mph - N/A   Mostly Cloudy
4:00 PM 35.6 °F 26.6 °F 30.2 °F 81% 29.44 in 6.2 mi WSW 13.8 mph - N/A   Mostly Cloudy
4:30 PM 35.6 °F 27.1 °F 30.2 °F 81% 29.44 in 6.2 mi WSW 12.7 mph - N/A   Mostly Cloudy
5:00 PM 35.6 °F 27.1 °F 30.2 °F 81% 29.44 in 6.2 mi WSW 12.7 mph - N/A   Scattered Clouds
5:30 PM 35.6 °F 28.0 °F 30.2 °F 81% 29.44 in 6.2 mi WSW 10.4 mph - N/A   Scattered Clouds
6:00 PM 35.6 °F 29.2 °F 30.2 °F 81% 29.47 in 6.2 mi WSW 8.1 mph - N/A Snow Light Snow Showers
6:15 PM 33.8 °F 27.0 °F 30.2 °F 87% 29.47 in 6.2 mi WSW 8.1 mph - N/A   Mostly Cloudy
6:30 PM 33.8 °F 25.3 °F 30.2 °F 87% 29.47 in 6.2 mi WSW 11.5 mph - N/A   Mostly Cloudy
7:00 PM 33.8 °F 26.4 °F 30.2 °F 87% 29.47 in 6.2 mi WSW 9.2 mph - N/A   Mostly Cloudy
7:30 PM 33.8 °F 27.7 °F 30.2 °F 87% 29.47 in 6.2 mi WSW 6.9 mph - N/A   Mostly Cloudy
8:00 PM 33.8 °F 27.7 °F 30.2 °F 87% 29.50 in 6.2 mi SW 6.9 mph - N/A   Mostly Cloudy
9:00 PM 33.8 °F 27.7 °F 30.2 °F 87% 29.50 in 2.5 mi WSW 6.9 mph - N/A Snow Light Snow Showers
10:00 PM 33.8 °F 27.0 °F 30.2 °F 87% 29.50 in 6.2 mi WSW 8.1 mph - N/A Snow Light Snow
11:00 PM 33.8 °F 25.8 °F 30.2 °F 87% 29.53 in 6.2 mi West 10.4 mph - N/A   Mostly Cloudy